Weather History for KSTC - October, 2011

Change the Weather History Date:

Saturday, October 1, 2011

  Actual Average Record
Temperature  
Mean Temperature 47 °F 52 °F  
Max Temperature 63 °F 64 °F 86 °F (1992)
Min Temperature 31 °F 40 °F 18 °F (1974)
Degree Days  
Heating Degree Days 18 13  
Month to date heating degree days 18 13  
Since 1 July heating degree days 244 299  
Cooling Degree Days 0 0  
Month to date cooling degree days 0 0  
Year to date cooling degree days 607 463  
Moisture  
Dew Point 34 °F    
Average Humidity 67    
Maximum Humidity 100    
Minimum Humidity 34    
Precipitation  
Precipitation 0.00 in 0.10 in 3.21 in (1950)
Month to date precipitation 0.00 0.10  
Year to date precipitation 26.02 23.14  
Snow  
Snow 0.00 in 0.00 in T in (1974)
Month to date snowfall 0.0 0.0  
Since 1 July snowfall 0.0 T  
Since 1 September snowfall 0.0 T  
Snow Depth 0.00 in    
Sea Level Pressure  
Sea Level Pressure 30.30 in    
Wind  
Wind Speed 7 mph (SE)    
Max Wind Speed 16 mph    
Max Gust Speed 21 mph    
Visibility 10 miles    
Events      
T = Trace of Precipitation, MM = Missing Value Source: NWS Daily Summary

Daily Weather History Graph

Daily Weather History Graph

Search for Another Location

Airport or City:

Trip Planner

Search our weather history database for the weather conditions in past years. The results will help you decide how hot, cold, wet, or windy it might be!

Date:

Astronomy

Oct. 01, 2011 Rise Set
Actual Time 7:14 AM CDT 6:56 PM CDT
Civil Twilight 6:44 AM CDT 7:26 PM CDT
Nautical Twilight 6:10 AM CDT 8:00 PM CDT
Astronomical Twilight 5:35 AM CDT 8:35 PM CDT
Moon 12:38 PM CDT 9:37 PM CDT
Length of Visible Light 12h 41m
Length of Day
11h 42m
Waxing Crescent, 24% of the Moon is Illuminated
Oct 1
Waxing Crescent
Oct 3
First Quarter
Oct 11
Full
Oct 19
Last Quarter
Oct 26
New

Hourly Weather History & Observations

Time (CDT) Temp. Windchill Dew Point Humidity Pressure Visibility Wind Dir Wind Speed Gust Speed Precip Events Conditions
12:53 AM 39.9 °F 37.8 °F 34.0 °F 79% 30.33 in 10.0 mi East 3.5 mph - N/A   Clear
1:53 AM 35.1 °F - 33.1 °F 92% 30.35 in 10.0 mi Calm Calm - N/A   Clear
2:53 AM 37.0 °F 33.3 °F 33.1 °F 86% 30.34 in 10.0 mi East 4.6 mph - N/A   Clear
3:53 AM 37.4 °F - 33.8 °F 87% 30.31 in 10.0 mi Calm Calm - N/A   Clear
4:53 AM 33.1 °F 30.0 °F 30.0 °F 89% 30.35 in 10.0 mi ESE 3.5 mph - N/A   Clear
5:53 AM 30.9 °F - 30.0 °F 96% 30.36 in 10.0 mi Calm Calm - N/A   Clear
6:53 AM 34.0 °F 31.0 °F 32.0 °F 92% 30.37 in 10.0 mi SE 3.5 mph - N/A   Clear
7:53 AM 33.1 °F 30.0 °F 30.9 °F 92% 30.38 in 10.0 mi SE 3.5 mph - N/A   Clear
8:53 AM 39.9 °F 34.5 °F 36.0 °F 86% 30.39 in 10.0 mi SE 8.1 mph - N/A   Clear
9:53 AM 46.9 °F - 34.0 °F 61% 30.39 in 10.0 mi South 15.0 mph - N/A   Clear
10:53 AM 51.1 °F - 33.1 °F 50% 30.40 in 10.0 mi South 12.7 mph - N/A   Clear
11:53 AM 54.0 °F - 33.1 °F 45% 30.38 in 10.0 mi SSE 12.7 mph - N/A   Clear
12:53 PM 57.2 °F - 33.8 °F 41% 30.30 in 10.0 mi South 15.0 mph - N/A   Clear
1:53 PM 59.0 °F - 35.1 °F 41% 30.31 in 10.0 mi South 12.7 mph - N/A   Clear
2:53 PM 61.0 °F - 35.1 °F 38% 30.28 in 10.0 mi South 9.2 mph - N/A   Clear
3:53 PM 62.1 °F - 34.0 °F 35% 30.27 in 10.0 mi South 10.4 mph - N/A   Clear
4:53 PM 62.6 °F - 35.6 °F 37% 30.21 in 10.0 mi SSE 11.5 mph - N/A   Clear
5:53 PM 61.0 °F - 35.1 °F 38% 30.25 in 10.0 mi SSE 11.5 mph - N/A   Clear
6:53 PM 55.9 °F - 37.0 °F 49% 30.24 in 10.0 mi SE 5.8 mph - N/A   Clear
7:53 PM 50.0 °F - 37.0 °F 61% 30.23 in 10.0 mi SE 6.9 mph - N/A   Clear
8:53 PM 52.0 °F - 37.0 °F 57% 30.21 in 10.0 mi SE 6.9 mph - N/A   Clear
9:53 PM 46.0 °F 42.5 °F 37.0 °F 71% 30.21 in 10.0 mi SE 6.9 mph - N/A   Clear
10:53 PM 46.4 °F 44.3 °F 37.4 °F 71% 30.17 in 10.0 mi SE 4.6 mph - N/A   Clear
11:53 PM 46.0 °F 43.1 °F 37.0 °F 71% 30.22 in 10.0 mi SE 5.8 mph - N/A   Clear